Weather reports worldwide

Advertisment
Topcliffe, United Kingdom (3265): temperature & dewpoint: 10.12.2019 03:00:00 - 16.12.2019 03:00:00 (GMT)Topcliffe, United Kingdom (3265): wind speed & gusts: 10.12.2019 03:00:00 - 16.12.2019 03:00:00 (GMT)Topcliffe, United Kingdom (3265): wind direction: 10.12.2019 03:00:00 - 16.12.2019 03:00:00 (GMT)Topcliffe, United Kingdom (3265): reduced air pressure: 10.12.2019 03:00:00 - 16.12.2019 03:00:00 (GMT)Topcliffe, United Kingdom (3265): visibility: 10.12.2019 03:00:00 - 16.12.2019 03:00:00 (GMT)Topcliffe, United Kingdom (3265): precipitation: 10.12.2019 03:00:00 - 16.12.2019 03:00:00 (GMT)
Date & Time tt [°C] td [°C] ff [km/h] ff [kn] fx [km/h] fx [kn] dd ppp [hPa] vv [km] rr [mm]
16.12.2019 03:00:00 3,0 2,6 13 7 - - SE 993,4 6 0,6
16.12.2019 02:00:00 3,0 2,4 9 5 - - SE 993,6 26 0,0
16.12.2019 01:00:00 1,9 1,1 15 8 - - ESE 993,0 30 0,0
16.12.2019 00:00:00 1,6 1,0 15 8 - - ESE 992,9 30 0,0
15.12.2019 23:00:00 3,9 2,6 9 5 - - SE 992,9 50 0,0
15.12.2019 22:00:00 4,5 2,8 18 10 - - SE 992,5 50 0,0
15.12.2019 21:00:00 4,5 2,6 13 7 - - SE 992,7 50 0,0
15.12.2019 20:00:00 3,8 1,9 18 10 - - S 992,4 50 0,0
15.12.2019 19:00:00 3,0 1,6 18 10 - - S 992,6 50 0,0
15.12.2019 18:00:00 1,8 0,2 16 9 - - SSE 992,0 40 0,0
15.12.2019 17:00:00 3,6 1,5 16 9 - - SE 992,4 50 0,0
15.12.2019 16:00:00 1,8 0,0 13 7 - - SE 992,7 50 0,0
15.12.2019 15:00:00 3,8 1,3 15 8 - - S 992,1 45 0,0
15.12.2019 14:00:00 5,4 1,5 15 8 - - WSW 991,6 35 0,0
15.12.2019 13:00:00 4,3 2,0 13 7 - - S 991,1 45 0,0
15.12.2019 12:00:00 3,8 2,1 15 8 - - S 990,3 40 0,0
15.12.2019 11:00:00 3,9 1,9 9 5 - - S 989,6 50 0,0
15.12.2019 10:00:00 2,9 1,1 15 8 - - SW 988,5 50 0,0
15.12.2019 09:00:00 2,1 1,0 11 6 - - SW 987,5 50 0,0
15.12.2019 08:00:00 2,7 1,0 9 5 - - SW 985,9 50 0,0
15.12.2019 07:00:00 2,2 0,9 13 7 - - WSW 984,6 50 0,0
15.12.2019 06:00:00 2,9 1,3 18 10 - - WSW 983,3 50 0,2
15.12.2019 05:00:00 2,0 1,2 15 8 - - W 981,5 6 1,4
15.12.2019 04:00:00 2,1 1,2 15 8 - - WSW 979,9 45 1,0
15.12.2019 03:00:00 2,2 1,8 9 5 - - S 979,1 3,6 2,0
15.12.2019 02:00:00 2,4 2,0 15 8 - - SE 979,6 3,8 0,8
15.12.2019 01:00:00 2,9 2,0 11 6 - - SSE 980,8 13 0,0
15.12.2019 00:00:00 2,8 1,8 15 8 - - SE 981,3 19 0,0
14.12.2019 23:00:00 2,6 1,6 16 9 - - SSE 982,7 23 0,0
14.12.2019 22:00:00 2,6 1,2 18 10 - - SSE 984,2 24 0,0
14.12.2019 21:00:00 3,3 0,2 22 12 - - SSW 985,1 50 0,0
14.12.2019 20:00:00 4,1 0,8 13 7 52 28 SSW 985,8 15 0,0
14.12.2019 19:00:00 4,3 1,2 24 13 50 27 SW 985,5 16 0,2
14.12.2019 18:00:00 4,4 1,5 29 16 - - SW 985,7 10 0,0
14.12.2019 17:00:00 4,3 1,2 29 16 55 30 SW 985,9 16 0,0
14.12.2019 16:00:00 4,3 0,1 35 19 63 34 WSW 985,6 40 0,0
14.12.2019 15:00:00 4,8 1,2 22 12 - - WSW 984,5 35 0,0
14.12.2019 14:00:00 3,8 1,3 22 12 59 32 W 984,1 50 0,4
14.12.2019 13:00:00 3,8 1,7 39 21 57 31 W 983,8 8 0,2
14.12.2019 12:00:00 4,0 1,2 18 10 57 31 WSW 982,6 50 0,2
14.12.2019 11:00:00 5,1 1,3 29 16 50 27 WSW 982,0 40 0,0
14.12.2019 10:00:00 5,6 1,5 16 9 - - SW 981,5 18 0,0
14.12.2019 09:00:00 5,3 1,0 21 11 - - W 980,8 40 0,0
14.12.2019 08:00:00 5,6 1,1 26 14 46 25 W 979,9 40 0,0
14.12.2019 07:00:00 5,1 1,4 21 11 - - W 979,2 50 0,0
14.12.2019 06:00:00 5,2 1,0 21 11 - - WSW 978,6 50 0,0
14.12.2019 05:00:00 4,8 0,6 21 11 - - WSW 978,1 50 0,0
14.12.2019 04:00:00 4,4 1,3 15 8 - - WSW 977,6 25 0,0
14.12.2019 03:00:00 3,6 1,0 11 6 - - WSW 977,2 50 0,0
14.12.2019 02:00:00 4,3 1,4 24 13 - - WSW 976,6 50 0,0
14.12.2019 01:00:00 4,4 1,9 16 9 - - W 976,3 45 0,2
14.12.2019 00:00:00 5,3 1,8 26 14 - - W 976,0 35 0,0
13.12.2019 23:00:00 5,3 1,9 15 8 - - W 976,1 45 0,0
13.12.2019 22:00:00 6,0 2,2 18 10 - - W 976,0 50 0,0
13.12.2019 21:00:00 6,2 3,6 18 10 - - WSW 975,9 50 0,0
13.12.2019 20:00:00 6,1 4,3 21 11 - - SW 975,9 50 0,0
13.12.2019 19:00:00 5,8 4,0 11 6 - - WSW 975,9 50 0,0
13.12.2019 18:00:00 5,4 3,4 2 1 - - N 976,2 50 0,0
13.12.2019 17:00:00 4,7 2,7 5 3 - - S 976,1 50 0,0
13.12.2019 16:00:00 5,8 3,2 11 6 - - SW 975,9 50 0,0
13.12.2019 15:00:00 7,4 3,0 13 7 - - WSW 975,5 50 0,0
13.12.2019 14:00:00 8,1 3,4 15 8 - - W 975,0 35 0,0
13.12.2019 13:00:00 8,1 2,9 15 8 - - W 975,1 50 0,0
13.12.2019 12:00:00 7,6 3,3 16 9 - - W 974,4 50 0,0
13.12.2019 11:00:00 6,5 3,5 15 8 - - WSW 974,3 50 0,0
13.12.2019 10:00:00 4,1 2,2 8 4 - - S 973,9 50 0,0
13.12.2019 09:00:00 2,5 0,2 2 1 - - NNE 972,9 40 0,0
13.12.2019 08:00:00 5,1 2,8 9 5 - - WSW 972,1 50 0,0
13.12.2019 07:00:00 4,9 2,6 8 4 - - SW 971,2 50 0,0
13.12.2019 06:00:00 5,0 3,0 8 4 - - W 970,3 50 0,0
13.12.2019 05:00:00 5,2 3,4 9 5 - - W 969,6 50 0,0
13.12.2019 04:00:00 4,6 4,5 13 7 - - W 969,3 23 0,0
13.12.2019 03:00:00 3,3 3,3 0 0 - - N 969,1 3,7 0,0
13.12.2019 02:00:00 3,6 3,6 0 0 - - N 968,6 2,9 0,0
13.12.2019 01:00:00 3,4 3,4 0 0 - - N 968,6 0,1 0,0
13.12.2019 00:00:00 3,4 3,4 0 0 - - N 968,9 0,2 0,0
12.12.2019 23:00:00 3,5 3,5 0 0 - - N 969,4 0,3 0,0
12.12.2019 22:00:00 3,6 3,6 0 0 - - N 970,0 0,1 0,0
12.12.2019 21:00:00 3,9 3,8 5 3 - - WNW 970,8 0,1 0,2
12.12.2019 20:00:00 4,6 4,5 5 3 - - SW 971,7 1,6 0,0
12.12.2019 19:00:00 4,7 4,7 8 4 - - SE 972,9 2,5 0,0
12.12.2019 18:00:00 4,6 4,6 11 6 - - ESE 974,1 3,3 0,4
12.12.2019 17:00:00 4,5 4,5 11 6 - - ESE 975,8 5 1,8
12.12.2019 16:00:00 4,4 4,3 21 11 - - SE 977,6 5 1,6
12.12.2019 15:00:00 4,2 3,9 21 11 - - SE 979,4 9 0,6
12.12.2019 14:00:00 3,6 3,3 - - - - - 981,4 7 0,4
12.12.2019 13:00:00 3,3 2,9 - - - - - 983,3 10 0,0
12.12.2019 12:00:00 3,0 2,4 26 14 - - SE 985,3 6 0,2
12.12.2019 11:00:00 2,6 2,1 26 14 - - SE 987,4 9 0,0
12.12.2019 10:00:00 2,1 1,2 22 12 - - SE 989,4 20 0,0
12.12.2019 09:00:00 1,5 0,7 18 10 - - SE 990,6 21 0,0
12.12.2019 08:00:00 1,4 0,6 22 12 - - SSE 991,8 22 0,0
12.12.2019 07:00:00 1,1 0,3 18 10 - - SE 992,9 16 0,0
12.12.2019 06:00:00 0,8 0,0 16 9 - - SSE 993,9 28 0,0
12.12.2019 05:00:00 1,5 0,4 21 11 - - S 994,7 30 0,0
12.12.2019 04:00:00 1,1 0,2 15 8 - - SSE 995,8 11 0,0
12.12.2019 03:00:00 0,2 -0,4 13 7 - - SSE 996,6 6 0,0
12.12.2019 02:00:00 0,7 0,3 16 9 - - S 997,4 10 0,0
12.12.2019 01:00:00 -0,9 -1,3 13 7 - - S 997,8 17 0,0
12.12.2019 00:00:00 -2,1 -3,2 11 6 - - SSE 998,4 19 0,0
11.12.2019 23:00:00 0,3 -0,4 15 8 - - S 998,4 30 0,0
11.12.2019 22:00:00 -1,5 -3,0 9 5 - - S 998,7 20 0,0
11.12.2019 21:00:00 -0,2 -1,2 9 5 - - SSE 998,9 28 0,0
11.12.2019 20:00:00 0,4 -1,0 8 4 - - SSE 998,7 50 0,0
11.12.2019 19:00:00 3,3 1,3 9 5 - - WSW 998,3 45 0,0
11.12.2019 18:00:00 2,3 0,3 2 1 - - S 998,2 40 0,0
11.12.2019 17:00:00 4,3 1,3 9 5 - - SW 998,0 50 0,0
11.12.2019 16:00:00 4,6 2,6 13 7 - - SSW 997,5 50 0,0
11.12.2019 15:00:00 5,6 2,2 15 8 - - SW 997,5 50 0,0
11.12.2019 14:00:00 5,9 2,9 16 9 - - SSW 997,5 40 0,0
11.12.2019 13:00:00 6,8 3,0 15 8 - - S 997,9 50 0,0
11.12.2019 12:00:00 5,2 2,9 15 8 - - S 998,5 30 0,0
11.12.2019 11:00:00 3,7 2,8 21 11 - - E 999,4 15 0,0
11.12.2019 10:00:00 3,4 1,5 16 9 - - S 999,9 21 0,0
11.12.2019 09:00:00 3,0 2,0 18 10 - - SSE 999,9 19 0,0
11.12.2019 08:00:00 3,1 1,3 15 8 - - S 1000,3 21 0,0
11.12.2019 07:00:00 3,0 1,6 13 7 - - S 1001,2 20 0,0
11.12.2019 06:00:00 4,8 2,7 16 9 - - S 1001,4 17 0,0
11.12.2019 05:00:00 5,4 3,0 24 13 - - SSW 1001,3 14 0,0
11.12.2019 04:00:00 6,4 2,9 28 15 - - WSW 1001,3 14 0,0
11.12.2019 03:00:00 6,4 2,6 28 15 - - SW 1001,6 13 0,0
11.12.2019 02:00:00 6,9 2,7 24 13 - - WSW 1001,4 18 0,0
11.12.2019 01:00:00 6,0 2,7 21 11 - - SW 1001,1 17 0,0
11.12.2019 00:00:00 6,3 3,0 18 10 - - WSW 1000,8 26 0,0
10.12.2019 23:00:00 6,7 3,1 22 12 - - W 999,9 35 0,0
10.12.2019 22:00:00 5,9 3,1 21 11 57 31 W 998,9 45 0,4
10.12.2019 21:00:00 6,8 3,2 24 13 50 27 WSW 997,7 30 0,0
10.12.2019 20:00:00 7,2 2,8 35 19 54 29 W 996,9 50 0,0
10.12.2019 19:00:00 8,1 4,1 22 12 59 32 W 995,0 50 0,0
10.12.2019 18:00:00 9,5 5,7 41 22 72 39 W 993,5 50 0,6
10.12.2019 17:00:00 12,6 10,7 50 27 72 39 S 990,0 30 0,2
10.12.2019 16:00:00 11,5 9,8 35 19 50 27 SSE 991,8 50 0,0
10.12.2019 15:00:00 11,0 9,4 31 17 46 25 S 993,5 40 0,2
10.12.2019 14:00:00 10,1 8,7 34 18 48 26 S 995,6 30 0,0
10.12.2019 13:00:00 10,0 8,1 34 18 55 30 S 998,0 45 0,2
10.12.2019 12:00:00 8,5 7,3 31 17 48 26 S 1000,4 40 0,2
10.12.2019 11:00:00 6,9 6,4 26 14 - - SSE 1003,1 12 0,8
10.12.2019 10:00:00 5,5 4,7 28 15 - - SSE 1005,2 13 0,2
10.12.2019 09:00:00 4,0 3,5 31 17 - - SE 1007,3 12 0,4
10.12.2019 08:00:00 3,5 2,7 34 18 - - SSE 1009,3 7 0,4
10.12.2019 07:00:00 2,8 1,7 26 14 - - SSE 1011,5 15 0,0
10.12.2019 06:00:00 3,7 2,0 28 15 - - SSE 1013,3 18 0,0
10.12.2019 05:00:00 1,8 1,0 24 13 - - SE 1014,5 14 0,0
10.12.2019 04:00:00 0,7 0,1 21 11 - - SE 1016,3 11 0,0
10.12.2019 03:00:00 0,0 -0,4 15 8 - - SE 1018,0 12 0,0

tt = temperature
td = dewpoint
ff = wind speed
fx = gusts
dd = wind direction
ppp = reduced air pressure
vv = visibility
rr = precipitation

Next stations